Time,TemperatureF,DewpointF,PressureIn,WindDirection,WindDirectionDegrees,WindSpeedMPH,WindSpeedGustMPH,Humidity,HourlyPrecipIn,Conditions,Clouds,dailyrainin,SoftwareType,DateUTC
2013-08-24 00:04:00,58.6,58.0,30.02,SSW,213,3.0,4.0,99,0.00,,,0.00,weatherlink.com 1.10,2013-08-24 04:04:00,
2013-08-24 00:19:00,58.4,58.0,30.02,SSW,210,3.0,5.0,98,0.00,,,0.00,weatherlink.com 1.10,2013-08-24 04:19:00,
2013-08-24 00:34:00,58.0,58.0,30.02,West,264,2.0,5.0,98,0.00,,,0.00,weatherlink.com 1.10,2013-08-24 04:34:00,
2013-08-24 00:49:00,57.8,57.0,30.02,SSW,211,0.0,6.0,98,0.00,,,0.00,weatherlink.com 1.10,2013-08-24 04:49:00,
2013-08-24 01:04:00,57.7,57.0,30.02,SW,229,0.0,3.0,98,0.00,,,0.00,weatherlink.com 1.10,2013-08-24 05:04:00,
2013-08-24 01:19:00,57.9,58.0,30.03,SW,226,0.0,2.0,99,0.00,,,0.00,weatherlink.com 1.10,2013-08-24 05:19:00,
2013-08-24 01:34:00,58.3,58.0,30.02,SW,217,1.0,3.0,99,0.00,,,0.00,weatherlink.com 1.10,2013-08-24 05:34:00,
2013-08-24 01:49:00,58.4,58.0,30.02,SSW,210,1.0,4.0,99,0.00,,,0.00,weatherlink.com 1.10,2013-08-24 05:49:00,
2013-08-24 02:04:00,58.2,58.0,30.01,WSW,246,1.0,3.0,99,0.00,,,0.00,weatherlink.com 1.10,2013-08-24 06:04:00,
2013-08-24 02:19:00,57.8,58.0,30.01,West,263,0.0,2.0,99,0.00,,,0.00,weatherlink.com 1.10,2013-08-24 06:19:00,
2013-08-24 02:34:00,57.6,57.0,30.01,West,262,0.0,3.0,99,0.00,,,0.00,weatherlink.com 1.10,2013-08-24 06:34:00,
2013-08-24 02:49:00,57.5,57.0,30.02,SW,231,1.0,4.0,99,0.00,,,0.00,weatherlink.com 1.10,2013-08-24 06:49:00,
2013-08-24 03:04:00,57.6,57.0,30.02,SW,227,2.0,5.0,99,0.00,,,0.00,weatherlink.com 1.10,2013-08-24 07:04:00,
2013-08-24 03:19:00,57.7,58.0,30.02,WSW,238,4.0,4.0,99,0.00,,,0.00,weatherlink.com 1.10,2013-08-24 07:19:00,
2013-08-24 03:34:00,57.5,57.0,30.02,SW,218,1.0,4.0,99,0.00,,,0.00,weatherlink.com 1.10,2013-08-24 07:34:00,
2013-08-24 03:49:00,57.2,57.0,30.02,WSW,242,2.0,4.0,99,0.00,,,0.00,weatherlink.com 1.10,2013-08-24 07:49:00,
2013-08-24 04:04:00,56.9,57.0,30.02,WSW,241,1.0,3.0,99,0.00,,,0.00,weatherlink.com 1.10,2013-08-24 08:04:00,
2013-08-24 04:19:00,56.7,57.0,30.03,SSW,202,3.0,6.0,99,0.00,,,0.00,weatherlink.com 1.10,2013-08-24 08:19:00,
2013-08-24 04:34:00,56.6,56.0,30.03,WNW,300,2.0,6.0,99,0.00,,,0.00,weatherlink.com 1.10,2013-08-24 08:34:00,
2013-08-24 04:49:00,56.4,56.0,30.04,SW,225,0.0,4.0,99,0.00,,,0.00,weatherlink.com 1.10,2013-08-24 08:49:00,
2013-08-24 05:04:00,56.2,56.0,30.04,SSW,192,3.0,5.0,99,0.00,,,0.00,weatherlink.com 1.10,2013-08-24 09:04:00,
2013-08-24 05:19:00,55.6,55.0,30.05,WSW,250,1.0,6.0,99,0.00,,,0.00,weatherlink.com 1.10,2013-08-24 09:19:00,
2013-08-24 05:34:00,55.0,55.0,30.06,SSW,208,0.0,5.0,99,0.00,,,0.00,weatherlink.com 1.10,2013-08-24 09:34:00,
2013-08-24 05:49:00,54.6,54.0,30.07,West,265,0.0,5.0,99,0.00,,,0.00,weatherlink.com 1.10,2013-08-24 09:49:00,
2013-08-24 06:04:00,54.3,54.0,30.07,SSW,206,0.0,4.0,99,0.00,,,0.00,weatherlink.com 1.10,2013-08-24 10:04:00,
2013-08-24 06:19:00,54.1,54.0,30.07,SW,216,1.0,4.0,99,0.00,,,0.00,weatherlink.com 1.10,2013-08-24 10:19:00,
2013-08-24 06:34:00,53.9,54.0,30.08,SW,223,0.0,3.0,99,0.00,,,0.00,weatherlink.com 1.10,2013-08-24 10:34:00,
2013-08-24 06:49:00,53.9,54.0,30.09,WNW,288,1.0,4.0,99,0.00,,,0.00,weatherlink.com 1.10,2013-08-24 10:49:00,
2013-08-24 07:04:00,54.2,54.0,30.09,WSW,238,0.0,4.0,98,0.00,,,0.00,weatherlink.com 1.10,2013-08-24 11:04:00,
2013-08-24 07:19:00,54.5,54.0,30.10,SW,236,0.0,5.0,97,0.00,,,0.00,weatherlink.com 1.10,2013-08-24 11:19:00,
2013-08-24 07:34:00,55.1,54.0,30.10,WSW,244,0.0,4.0,95,0.00,,,0.00,weatherlink.com 1.10,2013-08-24 11:34:00,
2013-08-24 07:50:00,55.9,54.0,30.11,West,279,0.0,5.0,92,0.00,,,0.00,weatherlink.com 1.10,2013-08-24 11:50:00,
2013-08-24 08:05:00,56.6,54.0,30.11,SW,225,1.0,4.0,92,0.00,,,0.00,weatherlink.com 1.10,2013-08-24 12:05:00,
2013-08-24 08:20:00,56.7,54.0,30.12,SW,229,0.0,6.0,91,0.00,,,0.00,weatherlink.com 1.10,2013-08-24 12:20:00,
2013-08-24 08:35:00,56.9,54.0,30.12,South,170,1.0,5.0,91,0.00,,,0.00,weatherlink.com 1.10,2013-08-24 12:35:00,
2013-08-24 08:50:00,57.4,54.0,30.12,NW,312,6.0,6.0,88,0.00,,,0.00,weatherlink.com 1.10,2013-08-24 12:50:00,
2013-08-24 09:05:00,57.8,54.0,30.13,SSW,200,2.0,6.0,86,0.00,,,0.00,weatherlink.com 1.10,2013-08-24 13:05:00,
2013-08-24 09:20:00,58.6,54.0,30.13,SW,214,4.0,7.0,85,0.00,,,0.00,weatherlink.com 1.10,2013-08-24 13:20:00,
2013-08-24 09:35:00,58.8,53.0,30.13,ESE,108,0.0,8.0,82,0.00,,,0.00,weatherlink.com 1.10,2013-08-24 13:35:00,
2013-08-24 09:50:00,59.3,52.0,30.14,SW,214,6.0,7.0,78,0.00,,,0.00,weatherlink.com 1.10,2013-08-24 13:50:00,
2013-08-24 10:05:00,59.9,53.0,30.14,WNW,303,1.0,7.0,79,0.00,,,0.00,weatherlink.com 1.10,2013-08-24 14:05:00,
2013-08-24 10:20:00,60.1,54.0,30.14,SSE,161,2.0,11.0,80,0.00,,,0.00,weatherlink.com 1.10,2013-08-24 14:20:00,
2013-08-24 10:35:00,60.4,54.0,30.15,West,263,4.0,7.0,78,0.00,,,0.00,weatherlink.com 1.10,2013-08-24 14:35:00,
2013-08-24 10:50:00,61.1,55.0,30.15,South,179,4.0,7.0,79,0.00,,,0.00,weatherlink.com 1.10,2013-08-24 14:50:00,
2013-08-24 11:05:00,61.6,54.0,30.16,West,266,1.0,7.0,76,0.00,,,0.00,weatherlink.com 1.10,2013-08-24 15:05:00,
2013-08-24 11:20:00,61.5,54.0,30.16,WNW,288,3.0,8.0,75,0.00,,,0.00,weatherlink.com 1.10,2013-08-24 15:20:00,
2013-08-24 11:35:00,62.0,53.0,30.16,West,272,2.0,7.0,72,0.00,,,0.00,weatherlink.com 1.10,2013-08-24 15:35:00,
2013-08-24 11:50:00,62.5,54.0,30.16,NW,306,2.0,6.0,73,0.00,,,0.00,weatherlink.com 1.10,2013-08-24 15:50:00,
2013-08-24 12:05:00,62.5,51.0,30.16,SW,234,6.0,8.0,66,0.00,,,0.00,weatherlink.com 1.10,2013-08-24 16:05:00,
2013-08-24 12:20:00,62.6,49.0,30.16,West,273,3.0,9.0,62,0.00,,,0.00,weatherlink.com 1.10,2013-08-24 16:20:00,
2013-08-24 12:35:00,62.9,50.0,30.16,NNE,13,3.0,9.0,62,0.00,,,0.00,weatherlink.com 1.10,2013-08-24 16:35:00,
2013-08-24 12:50:00,62.7,50.0,30.16,South,184,2.0,9.0,63,0.00,,,0.00,weatherlink.com 1.10,2013-08-24 16:50:00,
2013-08-24 13:05:00,63.0,51.0,30.16,WNW,289,4.0,7.0,64,0.00,,,0.00,weatherlink.com 1.10,2013-08-24 17:05:00,
2013-08-24 13:20:00,63.2,51.0,30.16,SSW,197,3.0,9.0,64,0.00,,,0.00,weatherlink.com 1.10,2013-08-24 17:20:00,
2013-08-24 13:35:00,63.4,52.0,30.16,SW,220,1.0,10.0,66,0.00,,,0.00,weatherlink.com 1.10,2013-08-24 17:35:00,
2013-08-24 13:50:00,63.5,51.0,30.16,WSW,250,1.0,7.0,64,0.00,,,0.00,weatherlink.com 1.10,2013-08-24 17:50:00,
2013-08-24 14:05:00,64.0,52.0,30.16,WNW,299,2.0,8.0,66,0.00,,,0.00,weatherlink.com 1.10,2013-08-24 18:05:00,
2013-08-24 14:20:00,63.2,52.0,30.16,West,261,0.0,7.0,67,0.00,,,0.00,weatherlink.com 1.10,2013-08-24 18:20:00,
2013-08-24 14:35:00,63.7,53.0,30.16,NNW,330,1.0,5.0,68,0.00,,,0.00,weatherlink.com 1.10,2013-08-24 18:35:00,
2013-08-24 14:50:00,64.0,54.0,30.16,NNW,331,1.0,7.0,69,0.00,,,0.00,weatherlink.com 1.10,2013-08-24 18:50:00,
2013-08-24 15:05:00,62.8,53.0,30.16,WSW,250,2.0,7.0,70,0.00,,,0.00,weatherlink.com 1.10,2013-08-24 19:05:00,
2013-08-24 15:20:00,64.1,54.0,30.16,NW,305,1.0,4.0,69,0.00,,,0.00,weatherlink.com 1.10,2013-08-24 19:20:00,
2013-08-24 15:35:00,64.7,55.0,30.16,NW,323,0.0,5.0,70,0.00,,,0.00,weatherlink.com 1.10,2013-08-24 19:35:00,
2013-08-24 15:50:00,63.6,52.0,30.16,SW,222,0.0,9.0,67,0.00,,,0.00,weatherlink.com 1.10,2013-08-24 19:50:00,
2013-08-24 16:05:00,63.9,53.0,30.16,ESE,109,1.0,6.0,67,0.00,,,0.00,weatherlink.com 1.10,2013-08-24 20:05:00,
2013-08-24 16:20:00,62.2,52.0,30.16,SW,225,0.0,9.0,69,0.00,,,0.00,weatherlink.com 1.10,2013-08-24 20:20:00,
2013-08-24 16:35:00,62.2,53.0,30.16,West,260,0.0,4.0,72,0.00,,,0.00,weatherlink.com 1.10,2013-08-24 20:35:00,
2013-08-24 16:50:00,61.5,53.0,30.16,SW,219,0.0,7.0,73,0.00,,,0.00,weatherlink.com 1.10,2013-08-24 20:50:00,
2013-08-24 17:05:00,62.5,54.0,30.16,South,178,2.0,4.0,73,0.00,,,0.00,weatherlink.com 1.10,2013-08-24 21:05:00,
2013-08-24 17:20:00,61.8,54.0,30.16,WNW,301,0.0,2.0,76,0.00,,,0.00,weatherlink.com 1.10,2013-08-24 21:20:00,
2013-08-24 17:35:00,61.6,53.0,30.16,SW,229,2.0,5.0,74,0.00,,,0.00,weatherlink.com 1.10,2013-08-24 21:35:00,
2013-08-24 17:50:00,60.3,53.0,30.16,NW,304,0.0,5.0,78,0.00,,,0.00,weatherlink.com 1.10,2013-08-24 21:50:00,
2013-08-24 18:05:00,61.3,54.0,30.16,West,278,3.0,4.0,77,0.00,,,0.00,weatherlink.com 1.10,2013-08-24 22:05:00,
2013-08-24 18:20:00,61.8,54.0,30.16,ESE,117,0.0,4.0,76,0.00,,,0.00,weatherlink.com 1.10,2013-08-24 22:20:00,
2013-08-24 18:35:00,61.4,54.0,30.16,ENE,59,0.0,3.0,76,0.00,,,0.00,weatherlink.com 1.10,2013-08-24 22:35:00,
2013-08-24 18:50:00,61.4,53.0,30.16,SE,136,3.0,4.0,75,0.00,,,0.00,weatherlink.com 1.10,2013-08-24 22:50:00,
2013-08-24 19:05:00,58.9,53.0,30.15,East,96,1.0,4.0,81,0.00,,,0.00,weatherlink.com 1.10,2013-08-24 23:05:00,
2013-08-24 19:20:00,58.2,53.0,30.16,SE,138,0.0,2.0,83,0.00,,,0.00,weatherlink.com 1.10,2013-08-24 23:20:00,
2013-08-24 19:35:00,57.2,52.0,30.16,NW,307,0.0,5.0,83,0.00,,,0.00,weatherlink.com 1.10,2013-08-24 23:35:00,
2013-08-24 19:50:00,56.8,52.0,30.16,SSW,208,2.0,6.0,83,0.00,,,0.00,weatherlink.com 1.10,2013-08-24 23:50:00,
2013-08-24 20:05:00,56.7,51.0,30.16,WSW,245,0.0,6.0,82,0.00,,,0.00,weatherlink.com 1.10,2013-08-25 00:05:00,
2013-08-24 20:21:00,56.3,51.0,30.18,SSE,157,0.0,4.0,82,0.00,,,0.00,weatherlink.com 1.10,2013-08-25 00:21:00,
2013-08-24 20:36:00,55.3,50.0,30.18,SSE,162,0.0,2.0,83,0.00,,,0.00,weatherlink.com 1.10,2013-08-25 00:36:00,
2013-08-24 20:51:00,55.4,50.0,30.18,SSW,194,0.0,5.0,81,0.00,,,0.00,weatherlink.com 1.10,2013-08-25 00:51:00,
2013-08-24 21:06:00,55.5,50.0,30.18,SW,221,1.0,4.0,81,0.00,,,0.00,weatherlink.com 1.10,2013-08-25 01:06:00,
2013-08-24 21:21:00,55.4,50.0,30.19,SSE,164,0.0,7.0,82,0.00,,,0.00,weatherlink.com 1.10,2013-08-25 01:21:00,
2013-08-24 21:36:00,55.1,50.0,30.20,ESE,110,0.0,10.0,84,0.00,,,0.00,weatherlink.com 1.10,2013-08-25 01:36:00,
2013-08-24 21:51:00,54.7,50.0,30.20,NW,306,0.0,12.0,85,0.00,,,0.00,weatherlink.com 1.10,2013-08-25 01:51:00,
2013-08-24 22:06:00,54.5,50.0,30.20,ENE,63,2.0,7.0,85,0.00,,,0.00,weatherlink.com 1.10,2013-08-25 02:06:00,
2013-08-24 22:21:00,54.1,50.0,30.21,ESE,115,2.0,4.0,86,0.00,,,0.00,weatherlink.com 1.10,2013-08-25 02:21:00,
2013-08-24 22:36:00,53.9,50.0,30.21,SE,140,1.0,3.0,87,0.00,,,0.00,weatherlink.com 1.10,2013-08-25 02:36:00,
2013-08-24 22:51:00,53.8,50.0,30.22,SSE,157,0.0,9.0,87,0.00,,,0.00,weatherlink.com 1.10,2013-08-25 02:51:00,
2013-08-24 23:06:00,53.7,50.0,30.22,SE,132,2.0,4.0,87,0.00,,,0.00,weatherlink.com 1.10,2013-08-25 03:06:00,
2013-08-24 23:21:00,53.6,50.0,30.22,SE,132,3.0,5.0,88,0.00,,,0.00,weatherlink.com 1.10,2013-08-25 03:21:00,
2013-08-24 23:36:00,53.5,50.0,30.22,ESE,117,1.0,3.0,88,0.00,,,0.00,weatherlink.com 1.10,2013-08-25 03:36:00,
2013-08-24 23:51:00,53.7,50.0,30.23,SSW,197,0.0,4.0,88,0.00,,,0.00,weatherlink.com 1.10,2013-08-25 03:51:00,